Simultaneous Nadir Overpasses (SNOs) Predictions

Prediction of SNOs between GOES-17 and LANDSAT-8 Satellite Orbit:

Table of predicted SNOs for the next 14.0 days since TLE Epoch: 2/27/2022
Index Date Time (GOES-17) GOES-17 Lat,Lon LANDSAT-8 Lat,Lon Distance(km) Time Diff (sec)
1 02/28/2022 07:25:37 -0.03,-137.21 -0.19,-137.95 84.36 80
2 03/02/2022 07:10:45 -0.04,-137.22 0.41,-134.99 252.35 80
3 03/02/2022 19:34:40 0.04,-137.23 0.65,-140.16 332.96 80
4 03/04/2022 19:22:29 0.04,-137.23 0.04,-137.20 3.82 80
5 03/06/2022 19:07:37 0.04,-137.23 -0.57,-134.24 339.65 80
6 03/07/2022 07:31:41 -0.04,-137.23 -0.48,-139.44 251.74 80
7 03/09/2022 07:16:49 -0.03,-137.22 0.14,-136.49 83.48 80
8 03/11/2022 07:04:38 -0.03,-137.20 0.76,-133.53 417.91 80
9 03/11/2022 19:25:52 0.03,-137.21 0.36,-138.68 168.16 80
